This demonstration page uses our WeatherBlox Daily Observations layout. Learn more.

Left ArrowRight Arrow

39.01783, -85.05884

Hourly Observations for August 8, 2015

Temp ( °F °C ) Dew Point ( °F °C ) Humidity (%) Winds ( mph kmh ) Pressure ( in mb ) Visibility ( mi km ) Precip ( " mm )
12:52 am 00:52 Mostly Cloudy 72 22.2 62 16.7 71 71 NNW 3 6 29.9 1013 10 16.0934 N/A
1:52 am 01:52 Mostly Cloudy 70 21.1 62 16.7 76 76 N N/A 29.9 1012 10 16.0934 N/A
2:52 am 02:52 Clear 67 19.4 62 16.7 84 84 N N/A 29.88 1012 10 16.0934 N/A
3:52 am 03:52 Clear 66 18.9 61 16.1 84 84 N N/A 29.87 1012 10 16.0934 N/A
4:52 am 04:52 Clear 65 18.3 62 16.7 90 90 N N/A 29.88 1012 10 16.0934 N/A
5:52 am 05:52 Mostly Clear 63 17.2 60 15.6 90 90 WNW 3 6 29.92 1013 10 16.0934 N/A
6:52 am 06:52 Partly Cloudy 64 17.8 61 16.1 90 90 N N/A 29.93 1014 10 16.0934 N/A
7:52 am 07:52 Partly Cloudy 67 19.4 63 17.2 87 87 N N/A 29.93 1013 10 16.0934 N/A
8:52 am 08:52 Mostly Cloudy 71 21.7 64 17.8 79 79 N N/A 29.95 1014 10 16.0934 N/A
9:52 am 09:52 Mostly Cloudy 75 23.9 64 17.8 69 69 N N/A 29.95 1014 10 16.0934 N/A
10:52 am 10:52 Mostly Cloudy 78 25.6 62 16.7 58 58 N N/A 29.95 1014 10 16.0934 N/A
11:52 am 11:52 Mostly Cloudy 79 26.1 63 17.2 58 58 N 7 11 29.96 1015 10 16.0934 N/A
12:52 pm 12:52 Mostly Cloudy 80 26.7 63 17.2 56 56 W 5 7 29.97 1015 10 16.0934 N/A
1:52 pm 13:52 Mostly Cloudy 82 27.8 63 17.2 53 53 WSW 6 9 29.96 1015 10 16.0934 N/A
2:52 pm 14:52 Mostly Cloudy 81 27.2 63 17.2 54 54 NNE 5 7 29.96 1015 10 16.0934 N/A
3:52 pm 15:52 Mostly Cloudy 80 26.7 63 17.2 56 56 NNW 6 9 29.96 1014 10 16.0934 N/A
4:52 pm 16:52 Mostly Cloudy 81 27.2 63 17.2 54 54 N 5 7 29.95 1014 10 16.0934 N/A
5:52 pm 17:52 Mostly Cloudy 81 27.2 64 17.8 57 57 VRB 3 6 29.94 1014 10 16.0934 N/A
6:52 pm 18:52 Mostly Cloudy 81 27.2 65 18.3 58 58 W 5 7 29.94 1014 10 16.0934 N/A
7:52 pm 19:52 Mostly Cloudy 80 26.7 65 18.3 60 60 WNW 5 7 29.95 1014 10 16.0934 N/A
8:52 pm 20:52 Partly Cloudy 77 25 65 18.3 66 66 N N/A 29.94 1014 10 16.0934 N/A
9:52 pm 21:52 Partly Cloudy 74 23.3 65 18.3 74 74 N N/A 29.95 1014 10 16.0934 N/A
10:52 pm 22:52 Partly Cloudy 70 21.1 65 18.3 84 84 N N/A 29.96 1015 10 16.0934 N/A
11:52 pm 23:52 Partly Cloudy 68 20 65 18.3 90 90 N N/A 29.97 1015 10 16.0934 N/A

Powered by AerisWeather